Location: Arpaise
(41.0333°N, 14.7333°E)
Time: 16:01:51
(UTC+00:00)

Cosmos 1400 Rocket - Pass Details

Date: 05 July 2020
Orbit: 521 x 569 km, 81.2° (Epoch: 11 August)

Event Time Altitude Azimuth Distance (km) Brightness Sun altitude
Rises 19:34:28 0° 1° (N) 2,717 7.0 -9.6°
Reaches altitude 10° 19:36:53 10° 13° (NNE) 1,810 5.9 -10.0°
Maximum altitude 19:40:22 28° 74° (ENE) 1,016 3.9 -10.5°
Enters shadow 19:42:50 16° 126° (SE) 1,462 4.3 -10.8°
